Retour au catalogue

STARLINK-11109

ActifCommunicationsVLEO
NORAD 60306·PAYLOAD·🇺🇸 United States

Lancé Jul 28, 2024 depuis Vandenberg Space Force Base

Loading…

Prochains Passages (prochaines 24 heures)

TLE

FraisSource: CelesTrak SupGP

Époque: Sep 14, 2026, 22:14 UTC

1 60306C 24133F   26257.92687500  .00018247  00000+0  15030-3 0  2577
2 60306  53.1571 293.2832 0001093  91.5980  24.8192 15.69701858    10

Suivez STARLINK-11109 en temps réel avec AllMySat

Download on the App Store